New Philadelphia, OH

7:30 PM EST on November 18, 2017 (GMT -0500)
Clever

Weather History for KPHD - February, 2015

Change the Weather History Date:

Friday, February 13, 2015

  Actual Average Record
Temperature  
Mean Temperature 13 °F 31 °F  
Max Temperature 24 °F 40 °F 70 °F (1984)
Min Temperature 2 °F 22 °F -5 °F (1979)
Degree Days  
Heating Degree Days 52 34  
Month to date heating degree days 498 450  
Since 1 July heating degree days 3827 3722  
Cooling Degree Days 0 0  
Month to date cooling degree days 0 0  
Year to date cooling degree days 0 0  
Moisture  
Dew Point 2 °F    
Average Humidity 66    
Maximum Humidity 87    
Minimum Humidity 45    
Precipitation  
Precipitation T in 0.09 in 0.94 in (2000)
Month to date precipitation 0.86 1.08  
Year to date precipitation 2.66 3.68  
Sea Level Pressure  
Sea Level Pressure 30.29 in    
Wind  
Wind Speed 5 mph (SW)    
Max Wind Speed 12 mph    
Max Gust Speed 17 mph    
Visibility 10 miles    
Events      
T = Trace of Precipitation, MM = Missing Value Source: NWS Daily Summary

Daily Weather History Graph

Daily Weather History Graph

Search for Another Location

Airport or City:

Trip Planner

Search our weather history database for the weather conditions in past years. The results will help you decide how hot, cold, wet, or windy it might be!

Date:

Astronomy

Feb. 13, 2015 Rise Set
Actual Time 7:22 AM EST 5:58 PM EST
Civil Twilight 6:54 AM EST 6:26 PM EST
Nautical Twilight 6:21 AM EST 6:58 PM EST
Astronomical Twilight 5:50 AM EST 7:30 PM EST
Moon 2:24 AM EST (2/13) 12:38 PM EST (2/13)
Length of Visible Light 11h 32m
Length of Day
10h 36m
Waning Crescent, 34% of the Moon is Illuminated
Feb 13
Waning Crescent
Feb 18
New
Feb 25
First Quarter
Mar 5
Full
Mar 13
Last Quarter

Hourly Weather History & Observations

Time (EST) Temp. Windchill Dew Point Humidity Pressure Visibility Wind Dir Wind Speed Gust Speed Precip Events Conditions
12:53 AM 6.1 °F - -0.9 °F 73% 30.39 in 10.0 mi Calm Calm - N/A   Clear
1:53 AM 5.0 °F -2.1 °F -2.0 °F 73% 30.39 in 10.0 mi SW 3.5 mph - N/A   Clear
2:53 AM 3.9 °F - -2.9 °F 73% 30.38 in 10.0 mi Calm Calm - N/A   Clear
3:53 AM 3.0 °F - -2.0 °F 80% 30.38 in 10.0 mi Calm Calm - N/A   Clear
4:53 AM 3.0 °F - -2.9 °F 76% 30.38 in 10.0 mi Calm Calm - N/A   Clear
5:53 AM 1.9 °F - -2.9 °F 80% 30.38 in 10.0 mi Calm Calm - N/A   Clear
6:53 AM 1.9 °F - -2.9 °F 80% 30.39 in 10.0 mi Calm Calm - N/A   Clear
7:53 AM 3.9 °F - -2.9 °F 73% 30.41 in 10.0 mi Calm Calm - N/A   Clear
8:53 AM 7.0 °F 0.1 °F -2.0 °F 67% 30.42 in 10.0 mi West 3.5 mph - N/A   Clear
9:53 AM 10.0 °F 1.8 °F -2.0 °F 58% 30.41 in 10.0 mi SW 4.6 mph - N/A   Clear
10:53 AM 12.9 °F -0.2 °F -2.0 °F 51% 30.40 in 10.0 mi WSW 10.4 mph - N/A   Clear
11:53 AM 16.0 °F 6.3 °F -0.0 °F 49% 30.37 in 10.0 mi WSW 6.9 mph - N/A   Clear
12:53 PM 17.1 °F 7.6 °F 1.0 °F 50% 30.34 in 10.0 mi SW 6.9 mph - N/A   Clear
1:53 PM 19.0 °F 11.1 °F 3.0 °F 50% 30.30 in 10.0 mi West 5.8 mph - N/A   Clear
2:53 PM 21.0 °F 9.9 °F 5.0 °F 50% 30.27 in 10.0 mi SW 10.4 mph - N/A   Clear
3:53 PM 21.9 °F 11.0 °F 3.9 °F 46% 30.24 in 10.0 mi WSW 10.4 mph - N/A   Clear
4:53 PM 21.9 °F 11.7 °F 5.0 °F 48% 30.21 in 10.0 mi WSW 9.2 mph - N/A   Partly Cloudy
5:53 PM 21.0 °F 10.6 °F 5.0 °F 50% 30.19 in 10.0 mi SSW 9.2 mph - N/A   Partly Cloudy
6:53 PM 19.9 °F 11.1 °F 6.1 °F 55% 30.19 in 10.0 mi SW 6.9 mph - N/A   Scattered Clouds
7:53 PM 19.9 °F 13.4 °F 7.0 °F 57% 30.15 in 10.0 mi SSW 4.6 mph - N/A   Overcast
8:53 PM 21.0 °F 16.2 °F 8.1 °F 57% 30.12 in 10.0 mi SSE 3.5 mph - N/A   Overcast
9:53 PM 21.9 °F 14.5 °F 8.1 °F 55% 30.10 in 10.0 mi Variable 5.8 mph - N/A   Overcast
10:53 PM 23.0 °F 13.1 °F 8.1 °F 53% 30.06 in 10.0 mi South 9.2 mph - N/A   Overcast
11:53 PM 24.1 °F 15.2 °F 8.1 °F 51% 30.03 in 10.0 mi South 8.1 mph - 0.00 in   Overcast